[[{"header":{"parameterUnit":"m.s-1","parameterCategory":1,"la1":30.2991,"la2":30.254,"lo1":-89.0895,"lo2":-89.0444,"dy":0.0017,"dx":0.0017,"nx":28,"ny":28,"refTime":"2023-10-29T03:00:00:Z","depth":0,"parameterNumber":2,"parameterNumberName":"U-component_of_WINDS"},"data":[0,0,0,0,0,0,0,0,0,0,0,0,0,0,0,0,0,0,0,0,0,0,0,0,0,0,0,0,0,0,0,0,0,0,0,0,0,0,0,0,0,0,0,0,0,0,0,0,0,0,0,0,0,0,0,0,0,0,-3.2309,-3.231,0,-3.2386,-3.2387,-3.2388,-3.2336,-3.2334,-3.2332,-3.2329,-3.2407,-3.2411,-3.2415,0,0,0,0,0,0,0,0,0,0,0,0,0,-3.2119,-3.2122,-3.2309,-3.231,-3.2311,-3.2386,-3.2387,-3.2388,-3.2337,-3.2334,-3.2331,-3.2328,-3.2406,-3.2411,-3.2416,0,0,0,0,0,0,0,0,0,0,0,0,0,-3.2199,-3.2124,-3.2309,-3.2295,-3.2294,-3.2386,-3.2387,-3.2389,-3.2337,-3.2334,-3.233,-3.2327,-3.2404,-3.241,-3.2416,-3.2527,0,0,-3.2436,-3.2439,0,0,0,0,0,0,0,0,-3.2195,-3.2206,-3.2296,-3.2296,-3.2295,-3.2348,-3.2349,-3.2435,-3.2338,-3.2321,-3.2329,-3.2325,-3.239,-3.2398,-3.242,-3.253,-3.2534,-3.2437,-3.244,-3.2443,-3.2445,0,0,0,0,0,0,0,-3.2189,-3.2203,-3.234,-3.2297,-3.2297,-3.2285,-3.2292,-3.2365,-3.2374,-3.2322,-3.2319,-3.2328,-3.2389,-3.2414,-3.2421,-3.2535,-3.2436,-3.2442,-3.2446,-3.2449,-3.2743,-3.2747,0,0,0,0,0,0,-3.2185,-3.2198,-3.2337,-3.2342,-3.2235,-3.2291,-3.2299,-3.2335,-3.2373,-3.2376,-3.2331,-3.2326,-3.2404,-3.2414,-3.2424,-3.2556,-3.2443,-3.2449,-3.2453,-3.2739,-3.2744,-3.2748,0,0,0,0,0,0,-3.2181,-3.2198,-3.2334,-3.2269,-3.2286,-3.2298,-3.2338,-3.2338,-3.2362,-3.2381,-3.2382,-3.2354,-3.2402,-3.2415,-3.2502,-3.2558,-3.2452,-3.2458,-3.2734,-3.274,-3.2746,-3.2822,0,0,0,0,0,0,-3.2176,-3.2197,-3.2238,-3.2271,-3.2289,-3.2411,-3.2342,-3.2342,-3.2374,-3.2367,-3.2402,-3.2405,-3.24,-3.2493,-3.2509,-3.2565,-3.2463,-3.2729,-3.2737,-3.2744,-3.2815,-3.283,-3.2843,0,0,0,0,0,-3.2169,-3.2255,-3.224,-3.2257,-3.2341,-3.2414,-3.2425,-3.2418,-3.2378,-3.242,-3.2433,-3.2404,-3.255,-3.2502,-3.2519,-3.2579,-3.2726,-3.2735,-3.2743,-3.2808,-3.2827,-3.2843,0,0,0,0,0,0,-3.2227,-3.2259,-3.2243,-3.2342,-3.2376,-3.2405,-3.2458,-3.2438,-3.2483,-3.2475,-3.2465,-3.2474,-3.2566,-3.2581,-3.2527,-3.2689,-3.2632,-3.2644,-3.2675,-3.2693,-3.2707,-3.27,-3.2468,0,0,0,0,0,-3.2252,-3.2309,-3.2334,-3.2419,-3.2437,-3.2445,-3.2477,-3.2469,-3.2503,-3.2517,-3.2536,-3.257,-3.2624,-3.266,-3.271,-3.2818,-3.2825,-3.2867,-3.2882,-3.2893,-3.2904,-3.2964,-3.2983,-3.2778,-3.2777,-3.2777,0,0,-3.2303,-3.2328,-3.2363,-3.2432,-3.2457,-3.2516,-3.2457,-3.2522,-3.2566,-3.2527,-3.2611,-3.2626,-3.2664,-3.2763,-3.2807,-3.2779,-3.2963,-3.2905,-3.2914,-3.2918,-3.2975,-3.2995,-3.3012,-3.2784,-3.2782,-3.2782,0,0,-3.2426,-3.245,-3.2525,-3.2552,-3.2592,-3.2598,-3.2616,-3.265,-3.2659,-3.2743,-3.2716,-3.2769,-3.2862,-3.2891,-3.2917,-3.3057,-3.3032,-3.3074,-3.3147,-3.3206,-3.3222,-3.3237,-3.3287,-3.3305,-3.3085,-3.3085,-3.3085,0,-3.2484,-3.2572,-3.2565,-3.2633,-3.2665,-3.2634,-3.2711,-3.2738,-3.2792,-3.2815,-3.2783,-3.2901,-3.2924,-3.303,-3.3064,-3.3087,-3.3108,-3.3068,-3.3221,-3.3235,-3.3248,-3.3296,-3.3315,-3.309,-3.3089,-3.3089,-3.3088,0,-3.2641,-3.2704,-3.2759,-3.2814,-3.2852,-3.2924,-3.2929,-3.2969,-3.2959,-3.2969,-3.3057,-3.3085,-3.3141,-3.3166,-3.3157,-3.3272,-3.3253,-3.3222,-3.3163,-3.3273,-3.3317,-3.3335,-3.3097,-3.3095,-3.3094,-3.3092,0,0,-3.2799,-3.2853,-3.2873,-3.2899,-3.2943,-3.2991,-3.3063,-3.3119,-3.3154,-3.3194,-3.3254,-3.3336,-3.3307,-3.3338,-3.3332,-3.3384,-3.3494,-3.3346,-3.3347,-3.3372,-3.3624,-3.3647,-3.3668,-3.348,-3.3483,-3.3486,-3.3621,0,-3.2924,-3.3049,-3.3047,-3.3163,-3.3221,-3.3196,-3.3258,-3.3293,-3.3305,-3.3356,-3.337,-3.3428,-3.3386,-3.3405,-3.3455,-3.347,-3.3544,-3.3461,-3.3535,-3.3538,-3.3525,-3.3692,-3.3715,-3.3841,-3.3638,-3.3641,-3.3644,0,-3.3086,-3.3133,-3.3255,-3.3293,-3.3317,-3.3374,-3.3427,-3.3477,-3.3517,-3.3522,-3.3559,-3.3546,-3.362,-3.3562,-3.3665,-3.3608,-3.3639,-3.3652,-3.3657,-3.3662,-3.3596,-3.3701,-3.3881,-3.39,-3.3671,-3.3669,-3.3667,0,-3.3189,-3.3283,-3.3368,-3.3391,-3.3438,-3.3478,-3.35,-3.3536,-3.3572,-3.3619,-3.3642,-3.3697,-3.3727,-3.3771,-3.3775,-3.3732,-3.3879,-3.382,-3.3886,-3.3886,-3.3915,-3.3913,-3.4103,-3.3938,-3.3938,-3.3937,-3.3937,0,-3.3327,-3.3403,-3.3415,-3.3468,-3.3553,-3.3552,-3.3636,-3.3654,-3.3687,-3.3743,-3.3726,-3.3779,-3.3781,-3.3836,-3.384,-3.3925,-3.3939,-3.3945,-3.3945,-3.3946,-3.3946,-3.3965,-3.3956,-3.3942,-3.3941,-3.394,-3.3939,0,-3.3455,-3.3466,-3.3558,-3.3597,-3.3608,-3.3669,-3.3702,-3.3753,-3.3765,-3.3837,-3.3854,-3.3872,-3.3937,-3.3946,-3.402,-3.4023,-3.4126,-3.4117,-3.4112,-3.4111,-3.4175,-3.4169,-3.4383,-3.4411,-3.4229,-3.4231,-3.4232,0,-3.3542,-3.36,-3.3646,-3.3683,-3.3707,-3.3766,-3.3803,-3.3806,-3.3845,-3.3897,-3.3942,-3.4005,-3.4055,-3.416,-3.418,-3.4239,-3.4231,-3.4302,-3.4239,-3.4239,-3.4232,-3.4228,-3.4234,-3.4313,-3.4315,-3.4317,-3.4318,0,-3.3696,-3.37,-3.3753,-3.381,-3.3855,-3.39,-3.3942,-3.3974,-3.3982,-3.4028,-3.4094,-3.4133,-3.4212,-3.4275,-3.4333,-3.4356,-3.4339,-3.4338,-3.4356,-3.4357,-3.4352,-3.4356,-3.4145,-3.4333,-3.4331,-3.433,-3.4329,-3.4329,-3.3805,-3.3857,-3.3898,-3.3959,-3.3992,-3.4033,-3.4083,-3.4103,-3.4158,-3.4222,-3.4221,-3.4295,-3.4337,-3.4413,-3.4441,-3.4499,-3.4476,-3.4502,-3.4508,-3.4515,-3.4521,-3.4345,-3.451,-3.4509,-3.4509,-3.4509,-3.4508,0,-3.3958,-3.3984,-3.4041,-3.4102,-3.4151,-3.4133,-3.418,-3.4222,-3.4287,-3.4327,-3.4378,-3.4456,-3.4519,-3.4546,-3.4608,-3.4649,-3.4643,-3.4665,-3.4662,-3.4668,-3.4538,-3.4516,-3.4669,-3.4669,-3.4669,-3.4669,-3.4669,-3.4669,-3.4043,-3.4129,-3.4138,-3.4242,-3.4267,-3.434,-3.4368,-3.4407,-3.4439,-3.4527,-3.458,-3.4598,-3.4634,-3.4699,-3.4756,-3.4763,-3.4786,-3.4812,-3.4815,-3.4693,-3.4676,-3.4661,-3.464,-3.4817,-3.4817,-3.4939,-3.494,-3.4941]},{"header":{"parameterUnit":"m.s-1","parameterCategory":1,"la1":30.2991,"la2":30.254,"lo1":-89.0895,"lo2":-89.0444,"dy":0.0017,"dx":0.0017,"nx":28,"ny":28,"refTime":"2023-10-29T03:00:00:Z","depth":0,"parameterNumber":3,"parameterNumberName":"V-component_of_WINDS"},"data":[0,0,0,0,0,0,0,0,0,0,0,0,0,0,0,0,0,0,0,0,0,0,0,0,0,0,0,0,0,0,0,0,0,0,0,0,0,0,0,0,0,0,0,0,0,0,0,0,0,0,0,0,0,0,0,0,0,0,1.0081,1.0082,0,1.0167,1.0168,1.0168,1.0205,1.0205,1.0205,1.0205,1.029,1.0292,1.0295,0,0,0,0,0,0,0,0,0,0,0,0,0,0.9949,0.9951,1.0081,1.0082,1.0083,1.0166,1.0168,1.0169,1.0205,1.0205,1.0205,1.0205,1.0289,1.0292,1.0295,0,0,0,0,0,0,0,0,0,0,0,0,0,1.0018,0.9952,1.0081,1.0111,1.0115,1.0166,1.0168,1.0169,1.0205,1.0205,1.0205,1.0205,1.0288,1.0292,1.0295,1.0322,0,0,1.0306,1.0308,0,0,0,0,0,0,0,0,1.0014,1.0022,1.0106,1.0109,1.0114,1.0175,1.0152,1.022,1.0205,1.0171,1.0205,1.0205,1.0252,1.0258,1.0275,1.0326,1.0329,1.0307,1.0309,1.031,1.0311,0,0,0,0,0,0,0,1.0009,1.0019,1.0115,1.0107,1.0112,1.0121,1.013,1.0165,1.0211,1.0174,1.0177,1.0187,1.0254,1.0271,1.0277,1.0331,1.0307,1.031,1.0312,1.0313,1.0411,1.0411,0,0,0,0,0,0,0.9999,1.0015,1.0112,1.0117,1.0062,1.0123,1.0134,1.0155,1.0211,1.0219,1.0187,1.0188,1.0265,1.0273,1.028,1.0317,1.031,1.0314,1.0316,1.041,1.0411,1.0411,0,0,0,0,0,0,0.9996,1.0008,1.0109,1.0067,1.008,1.0126,1.015,1.0157,1.0175,1.0221,1.0229,1.0196,1.0265,1.0275,1.0312,1.032,1.0315,1.0319,1.041,1.0411,1.0411,1.0389,0,0,0,0,0,0,0.9992,1.0006,1.0016,1.0067,1.0083,1.0139,1.015,1.0159,1.0181,1.0184,1.0232,1.024,1.0266,1.0307,1.0316,1.0325,1.0321,1.0409,1.041,1.0411,1.0389,1.0389,1.0388,0,0,0,0,0,0.9987,1.0005,1.0017,1.0028,1.0096,1.0139,1.0148,1.0179,1.0182,1.0193,1.0223,1.0238,1.0318,1.031,1.0321,1.0331,1.0409,1.041,1.0411,1.0389,1.0389,1.0388,0,0,0,0,0,0,0.9953,1.0012,1.0026,1.006,1.0095,1.0145,1.016,1.0177,1.021,1.0211,1.0247,1.0258,1.0292,1.0315,1.0305,1.0361,1.0365,1.0368,1.0345,1.0345,1.0344,1.0338,1.0324,0,0,0,0,0,0.9949,0.998,1.003,1.0056,1.0073,1.0113,1.0133,1.0154,1.0191,1.0205,1.0238,1.0272,1.0306,1.0326,1.0359,1.0393,1.0405,1.0406,1.0405,1.0405,1.0407,1.043,1.0431,1.0415,1.0415,1.0415,0,0,0.9942,0.9979,0.9995,1.005,1.0079,1.011,1.0125,1.0156,1.018,1.0209,1.0247,1.0272,1.0314,1.035,1.0367,1.037,1.0415,1.0406,1.0405,1.0408,1.0431,1.0432,1.0434,1.0415,1.0415,1.0415,0,0,0.9945,0.9975,1.0001,1.0031,1.0076,1.0103,1.011,1.0159,1.0177,1.0216,1.024,1.0268,1.0324,1.0354,1.0376,1.0394,1.041,1.0404,1.0401,1.0423,1.0424,1.0426,1.0434,1.0436,1.0406,1.0406,1.0406,0,0.993,0.9978,1.0012,1.0044,1.0068,1.0098,1.0126,1.0153,1.0205,1.0221,1.0224,1.0298,1.0327,1.0372,1.0377,1.0393,1.0403,1.0398,1.0421,1.0423,1.0425,1.0433,1.0436,1.0405,1.0405,1.0405,1.0405,0,0.9959,0.9992,1.0007,1.006,1.0086,1.0115,1.0154,1.0177,1.0196,1.0224,1.0264,1.0302,1.0344,1.0356,1.0375,1.0405,1.0406,1.0414,1.0419,1.0425,1.0434,1.0437,1.0403,1.0404,1.0404,1.0404,0,0,0.9939,1.0013,1.0019,1.0044,1.0097,1.0124,1.0155,1.0198,1.0218,1.0254,1.0282,1.033,1.034,1.0365,1.0388,1.0406,1.0421,1.0414,1.0415,1.0415,1.0459,1.0453,1.0456,1.0433,1.0433,1.0434,1.0456,0,0.9951,1.0009,1.0043,1.0087,1.0119,1.0151,1.0178,1.0214,1.0242,1.0273,1.0303,1.0338,1.0347,1.0363,1.0383,1.0415,1.0431,1.0414,1.046,1.0461,1.0449,1.046,1.0452,1.0472,1.046,1.046,1.0461,0,0.997,1.0009,1.0057,1.011,1.0125,1.0149,1.0193,1.0222,1.0265,1.0283,1.0314,1.0337,1.0373,1.0375,1.0425,1.0413,1.0434,1.0453,1.0455,1.046,1.0461,1.0467,1.0478,1.0481,1.0466,1.0466,1.0465,0,0.9954,1.0017,1.0055,1.0076,1.0138,1.0155,1.0181,1.0223,1.0248,1.0287,1.0304,1.0345,1.0368,1.04,1.0434,1.0432,1.0482,1.0486,1.0499,1.0499,1.0508,1.0507,1.0524,1.052,1.052,1.052,1.052,0,0.9963,0.9992,1.0049,1.0072,1.0106,1.0145,1.0177,1.0206,1.0245,1.0275,1.0304,1.0331,1.0375,1.0409,1.0436,1.0475,1.0484,1.0501,1.0508,1.0499,1.0497,1.0513,1.0513,1.0521,1.0521,1.0521,1.0521,0,0.9949,0.9989,1.0033,1.0089,1.0104,1.0127,1.0175,1.02,1.023,1.0268,1.0279,1.0326,1.0368,1.0406,1.0459,1.0478,1.0518,1.0526,1.0504,1.0508,1.052,1.0518,1.0548,1.0555,1.0545,1.0545,1.0545,0,0.9953,0.9976,1.0036,1.0059,1.0086,1.0122,1.0149,1.0189,1.0215,1.0268,1.0286,1.033,1.0367,1.0432,1.0471,1.0513,1.0523,1.0531,1.053,1.0521,1.0525,1.0524,1.0527,1.053,1.053,1.053,1.053,0,0.9955,0.9974,1.0012,1.0057,1.0089,1.0126,1.0164,1.0181,1.0229,1.0257,1.0301,1.033,1.0387,1.0431,1.0478,1.0506,1.0527,1.0531,1.0536,1.0527,1.0514,1.0523,1.0504,1.0529,1.0529,1.0529,1.053,1.053,0.9951,0.9974,1.0021,1.0063,1.0097,1.0133,1.0159,1.0194,1.0232,1.0282,1.0304,1.0349,1.0393,1.046,1.0488,1.0524,1.0528,1.0535,1.0538,1.0539,1.0538,1.0508,1.0532,1.0532,1.0533,1.0533,1.0533,0,0.9956,0.9989,1.0027,1.0081,1.0114,1.0132,1.0177,1.0203,1.0243,1.0283,1.032,1.0372,1.0415,1.0459,1.0506,1.0526,1.0537,1.0537,1.0536,1.0543,1.0531,1.0522,1.0528,1.0528,1.0528,1.0528,1.0528,1.0528,0.9962,1.0004,1.003,1.0089,1.0121,1.0167,1.0191,1.0225,1.0258,1.0314,1.0351,1.038,1.0423,1.0473,1.0515,1.0527,1.0543,1.0541,1.0555,1.0543,1.0543,1.0543,1.0535,1.0543,1.0543,1.0564,1.0564,1.0564]}]]